DFRTH LOIJ-LOWS

Flight info

Callsign DFRTH
Flight time N/A
Altitude 11000
Route VFR
Aircraft PC12/L-SDFGRWY/S

Departure

Time N/A
Airport Sankt Johann Airfield (LOIJ)

Arrival

Time 2026-04-29 14:38
Airport Salzburg Airport (LOWS)
Time Latitude Longitude Altitude Speed Heading
2026-04-29 14:33 47.77983 12.97043 5733 ft 234 kts 51°
2026-04-29 14:33 47.79465 12.97711 5117 ft 232 kts 346°
2026-04-29 14:34 47.80399 12.96327 4371 ft 243 kts 289°
2026-04-29 14:34 47.80520 12.94497 3701 ft 250 kts 271°
2026-04-29 14:34 47.80545 12.92068 3543 ft 220 kts 280°
2026-04-29 14:34 47.81108 12.90102 3209 ft 200 kts 316°
2026-04-29 14:35 47.82352 12.89547 2782 ft 189 kts 15°
2026-04-29 14:35 47.83235 12.90732 2559 ft 174 kts 78°
2026-04-29 14:35 47.82722 12.92280 2282 ft 178 kts 133°
2026-04-29 14:35 47.82094 12.93607 2229 ft 144 kts 94°
2026-04-29 14:36 47.82045 12.94959 2235 ft 126 kts 80°
2026-04-29 14:36 47.82122 12.96224 2337 ft 122 kts 76°
2026-04-29 14:36 47.82157 12.97512 2195 ft 126 kts 99°
2026-04-29 14:36 47.81572 12.98556 1853 ft 134 kts 131°
2026-04-29 14:37 47.80886 12.99373 1628 ft 122 kts 144°
2026-04-29 14:37 47.80122 12.99878 1429 ft 114 kts 151°
2026-04-29 14:37 47.79488 13.00280 1420 ft 85 kts 146°
2026-04-29 14:37 47.79040 13.00584 1410 ft 54 kts 159°
2026-04-29 14:38 47.78876 13.00690 1410 ft 9 kts 64°
2026-04-29 14:38 47.78925 13.00671 1411 ft 10 kts 332°
2026-04-29 14:38 47.79016 13.00602 1410 ft 20 kts 332°
2026-04-29 14:38 47.79113 13.00450 1410 ft 24 kts 273°
2026-04-29 14:39 47.79158 13.00241 1411 ft 21 kts 336°
2026-04-29 14:39 47.79286 13.00161 1413 ft 20 kts 335°
2026-04-29 14:39 47.79414 13.00075 1411 ft 21 kts 338°
2026-04-29 14:39 47.79535 13.00001 1412 ft 15 kts 334°
2026-04-29 14:40 47.79542 12.99870 1411 ft 12 kts 237°
2026-04-29 14:40 47.79506 12.99798 1411 ft 3 kts 296°
2026-04-29 14:40 47.79517 12.99787 1411 ft 3 kts 338°
2026-04-29 14:40 47.79518 12.99786 1411 ft 0 kts 337°